Notices

What's New in latest Release from April 7th, 2021:

- Updated Glossary, including Speed of Maximum Gust, and Total Hourly Precipitation

- Updated national and regional climate services offices contacts and prices information

- Addition of station inventory lists for 1981-2010, 1971-2000, and 1961-1990 Normals.

If you haven't already, please take our survey and provide feedback about our website: https://eccc.sondage-survey.ca/f/LanguageSelection.aspx?s=442ca660-fcf1-47c0-95a9-59707d6fd709

Hourly Data Report for September 02, 2017

TORONTO CITY
ONTARIO

43°40'00.000" N
79°24'00.000" W
112.50 m
6158355
71508
XTO

Download Data

Hourly Data (September 2017)
Hourly Data Report for September 2, 2017
TIME
LST
Temp Definition
°C
Dew Point Definition
°C
Rel Hum Definition
%
Precip. Amount Definition
mm

Wind Dir Definition
10's deg

Wind Spd Definition
km/h
Visibility Definition
km
Stn Press Definition
kPa
Hmdx Definition


Wind Chill Definition


Weather Definition


00:00 12.6 7.0 69 0.0 LegendMM LegendMM   100.94     LegendNANA
01:00 11.2 7.0 75 0.0 LegendMM LegendMM   100.93     LegendNANA
02:00 11.5 7.5 76 0.0 LegendMM LegendMM   100.90     LegendNANA
03:00 11.5 7.4 76 0.0 LegendMM LegendMM   100.86     LegendNANA
04:00 11.6 7.1 74 0.0 LegendMM LegendMM   100.79     LegendNANA
05:00 10.7 7.0 78 0.0 LegendMM LegendMM   100.79     LegendNANA
06:00 10.8 6.8 76 0.0 LegendMM LegendMM   100.81     LegendNANA
07:00 11.9 8.0 77 0.0 LegendMM LegendMM   100.79     LegendNANA
08:00 15.6 6.8 56 0.0 LegendMM LegendMM   100.80     LegendNANA
09:00 16.1 8.1 59 0.0 LegendMM LegendMM   100.81     LegendNANA
10:00 17.1 7.7 54 0.0 LegendMM LegendMM   100.78     LegendNANA
11:00 17.4 7.9 54 0.0 LegendMM LegendMM   100.75     LegendNANA
12:00 17.9 8.3 53 0.0 LegendMM LegendMM   100.67     LegendNANA
13:00 18.7 8.8 53 0.0 LegendMM LegendMM   100.59     LegendNANA
14:00 18.2 8.2 52 0.0 LegendMM LegendMM   100.50     LegendNANA
15:00 17.9 8.2 53 0.0 LegendMM LegendMM   100.42     LegendNANA
16:00 17.4 9.4 59 0.0 LegendMM LegendMM   100.35     LegendNANA
17:00 17.6 10.1 61 0.0 LegendMM LegendMM   100.29     LegendNANA
18:00 18.0 10.7 63 0.0 LegendMM LegendMM   100.25     LegendNANA
19:00 18.2 11.6 65 0.0 LegendMM LegendMM   100.20     LegendNANA
20:00 17.7 11.5 67 0.0 LegendMM LegendMM   100.20     LegendNANA
21:00 17.5 11.3 67 0.0 LegendMM LegendMM   100.18     LegendNANA
22:00 17.4 11.5 68 0.0 LegendMM LegendMM   100.12     LegendNANA
23:00 16.9 11.7 72 0.0 LegendMM LegendMM   100.03     LegendNANA

Notes on Data Quality.

Legend

  • E = Estimated
  • M = Missing
  • NA = Not Available*
  • [empty] = Indicates an unobserved value
Date modified: